Weather reports worldwide

Advertisment
Brindisi, Italy (16320): temperature & dewpoint: 16.09.2018 23:00:00 - 22.09.2018 23:00:00 (CEST)Brindisi, Italy (16320): wind speed: 16.09.2018 23:00:00 - 22.09.2018 23:00:00 (CEST)Brindisi, Italy (16320): wind direction: 16.09.2018 23:00:00 - 22.09.2018 23:00:00 (CEST)Brindisi, Italy (16320): reduced air pressure: 16.09.2018 23:00:00 - 22.09.2018 23:00:00 (CEST)Brindisi, Italy (16320): visibility: 16.09.2018 23:00:00 - 22.09.2018 23:00:00 (CEST)Brindisi, Italy (16320): precipitation: 16.09.2018 23:00:00 - 22.09.2018 23:00:00 (CEST)
Date & Time tt [°C] td [°C] ff [km/h] ff [kn] dd ppp [hPa] vv [km] rr [mm]
22.09.2018 23:00:00 22,6 19,3 11 6 SW 1018,7 10 0,0
22.09.2018 22:00:00 24,0 19,0 8 4 SW - 10 -
22.09.2018 21:00:00 25,0 17,0 8 4 S - 10 -
22.09.2018 20:00:00 24,8 18,1 5 3 SE 1018,0 10 -
22.09.2018 19:00:00 26,0 18,0 11 6 SE - 10 -
22.09.2018 18:00:00 26,0 19,0 11 6 E - 10 -
22.09.2018 17:00:00 26,4 19,7 15 8 ENE 1017,1 10 0,0
22.09.2018 16:00:00 27,0 19,0 18 10 ENE - 10 -
22.09.2018 15:00:00 27,0 19,0 16 9 ENE - 10 -
22.09.2018 14:00:00 26,3 19,1 16 9 ENE 1017,8 10 -
22.09.2018 13:00:00 26,0 20,0 15 8 ENE - 10 -
22.09.2018 12:00:00 26,0 20,0 13 7 NE - 10 -
22.09.2018 11:00:00 25,8 20,3 11 6 ENE 1018,0 10 0,0
22.09.2018 10:00:00 25,0 20,0 4 2 - - 10 -
22.09.2018 09:00:00 23,0 20,0 4 2 - - 10 -
22.09.2018 08:00:00 20,8 19,0 8 4 SW 1017,2 10 -
22.09.2018 07:00:00 19,0 18,0 5 3 WSW - 6 -
22.09.2018 06:00:00 19,0 18,0 4 2 WSW - 10 -
22.09.2018 05:00:00 19,6 18,1 8 4 W 1016,5 10 0,0
22.09.2018 04:00:00 20,0 19,0 8 4 SW - 10 -
22.09.2018 03:00:00 20,0 19,0 5 3 SW - 10 -
22.09.2018 02:00:00 20,5 18,2 5 3 WSW 1016,8 10 -
22.09.2018 01:00:00 21,0 18,0 4 2 WSW - 10 -
22.09.2018 00:00:00 22,0 18,0 2 1 SW - 10 -
21.09.2018 23:00:00 22,7 19,2 4 2 S 1016,6 10 0,0
21.09.2018 22:00:00 22,0 19,0 8 4 SW - 10 -
21.09.2018 21:00:00 24,0 19,0 2 1 - - 10 -
21.09.2018 20:00:00 23,9 19,2 4 2 WNW 1016,0 10 -
21.09.2018 19:00:00 24,0 19,0 8 4 WNW - 10 -
21.09.2018 18:00:00 25,0 20,0 2 1 - - 10 -
21.09.2018 17:00:00 25,4 19,7 8 4 SE 1015,9 10 0,0
21.09.2018 16:00:00 27,0 19,0 18 10 E - 8 -
21.09.2018 15:00:00 27,0 20,0 15 8 ENE - 10 -
21.09.2018 14:00:00 26,5 19,9 15 8 NE 1016,3 10 -
21.09.2018 13:00:00 26,0 20,0 11 6 NE - 10 -
21.09.2018 12:00:00 26,0 20,0 11 6 NE - 10 -
21.09.2018 11:00:00 25,9 20,2 9 5 NE 1016,9 10 0,0
21.09.2018 10:00:00 26,0 20,0 11 6 NNE - 10 -
21.09.2018 09:00:00 25,0 20,0 11 6 N - 10 -
21.09.2018 08:00:00 24,5 20,5 9 5 N 1016,0 10 -
21.09.2018 07:00:00 21,0 20,0 5 3 W - 10 -
21.09.2018 06:00:00 22,0 20,0 9 5 W - 10 -
21.09.2018 05:00:00 21,6 19,5 8 4 W 1015,7 10 0,0
21.09.2018 04:00:00 22,0 20,0 8 4 W - 10 -
21.09.2018 03:00:00 24,0 20,0 9 5 NNW - 10 -
21.09.2018 02:00:00 24,0 20,2 8 4 NNW 1016,3 20 -
21.09.2018 01:00:00 24,0 20,0 9 5 N - 10 -
21.09.2018 00:00:00 24,0 20,0 13 7 NNW - 10 -
20.09.2018 23:00:00 24,3 20,4 15 8 NNW 1016,7 10 0,0
20.09.2018 22:00:00 24,0 20,0 15 8 NNW - 10 -
20.09.2018 21:00:00 24,0 20,0 13 7 NW - 10 -
20.09.2018 20:00:00 24,6 20,2 15 8 NW 1016,4 10 -
20.09.2018 19:00:00 25,0 20,0 13 7 NW - 10 -
20.09.2018 18:00:00 26,0 20,0 13 7 NNW - 10 -
20.09.2018 17:00:00 26,0 20,1 15 8 N 1016,2 10 0,0
20.09.2018 16:00:00 26,0 19,0 16 9 N - 10 -
20.09.2018 15:00:00 27,0 21,0 18 10 N - 10 -
20.09.2018 14:00:00 26,5 19,3 18 10 N 1017,4 10 -
20.09.2018 13:00:00 26,0 20,0 16 9 N - 10 -
20.09.2018 12:00:00 26,0 21,0 15 8 N - 10 -
20.09.2018 11:00:00 26,4 20,5 15 8 N 1018,6 10 0,0
20.09.2018 10:00:00 - - - - - - - -
20.09.2018 09:00:00 26,0 20,0 13 7 N - 10 -
20.09.2018 08:00:00 24,7 20,2 11 6 N 1017,8 10 -
20.09.2018 07:00:00 24,0 21,0 13 7 N - 10 -
20.09.2018 06:00:00 24,0 21,0 13 7 N - 10 -
20.09.2018 05:00:00 24,2 20,8 4 2 - 1017,4 10 0,0
20.09.2018 04:00:00 22,0 19,0 5 3 NW - 10 -
20.09.2018 03:00:00 21,0 18,0 8 4 WNW - 10 -
20.09.2018 02:00:00 22,0 18,8 9 5 W 1018,2 10 -
20.09.2018 01:00:00 23,0 19,0 4 2 - - 10 -
20.09.2018 00:00:00 24,0 20,0 9 5 NE - 10 -
19.09.2018 23:00:00 23,8 18,9 9 5 ENE 1018,4 10 0,0
19.09.2018 22:00:00 24,0 18,0 5 3 N - 10 -
19.09.2018 21:00:00 25,0 18,0 4 2 NW - 10 -
19.09.2018 20:00:00 25,3 18,0 2 1 - 1018,3 10 -
19.09.2018 19:00:00 25,0 18,0 4 2 NE - 10 -
19.09.2018 18:00:00 26,0 17,0 8 4 E - 10 -
19.09.2018 17:00:00 26,2 17,6 13 7 ENE 1017,4 10 0,0
19.09.2018 16:00:00 27,0 17,0 18 10 ENE - 10 -
19.09.2018 15:00:00 27,0 19,0 18 10 ENE - 10 -
19.09.2018 14:00:00 26,5 18,6 16 9 ENE 1018,3 10 -
19.09.2018 13:00:00 26,0 20,0 16 9 ENE - 10 -
19.09.2018 12:00:00 26,0 21,0 16 9 ENE - 10 -
19.09.2018 11:00:00 25,7 20,6 11 6 ENE 1019,5 10 0,0
19.09.2018 10:00:00 26,0 20,0 8 4 E - 10 -
19.09.2018 09:00:00 25,0 19,0 4 2 - - 10 -
19.09.2018 08:00:00 21,3 17,3 8 4 SW 1019,0 10 -
19.09.2018 07:00:00 19,0 17,0 11 6 SW - 10 -
19.09.2018 06:00:00 19,0 17,0 8 4 SW - 10 -
19.09.2018 05:00:00 - - - - - - - -
19.09.2018 04:00:00 20,0 17,0 5 3 SW - 10 -
19.09.2018 03:00:00 21,0 17,0 2 1 - - 10 -
19.09.2018 02:00:00 20,8 17,7 2 1 S 1018,9 10 -
19.09.2018 01:00:00 21,0 18,0 2 1 - - 10 -
19.09.2018 00:00:00 22,0 18,0 2 1 - - 10 -
18.09.2018 23:00:00 22,3 17,9 4 2 SW 1019,2 10 0,0
18.09.2018 22:00:00 23,0 19,0 4 2 WSW - 10 -
18.09.2018 21:00:00 24,0 19,0 2 1 - - 10 -
18.09.2018 20:00:00 24,8 19,0 5 3 ESE 1018,6 10 -
18.09.2018 19:00:00 25,0 19,0 11 6 E - 10 -
18.09.2018 18:00:00 26,0 19,0 13 7 E - 10 -
18.09.2018 17:00:00 26,0 19,2 15 8 E 1018,4 10 0,0
18.09.2018 16:00:00 26,0 19,0 18 10 ENE - 10 -
18.09.2018 15:00:00 27,0 19,0 18 10 ENE - 10 -
18.09.2018 14:00:00 26,6 19,5 18 10 ENE 1019,4 10 -
18.09.2018 13:00:00 26,0 19,0 16 9 ENE - 10 -
18.09.2018 12:00:00 26,0 19,0 13 7 NE - 10 -
18.09.2018 11:00:00 25,9 18,0 13 7 ENE 1020,5 10 0,0
18.09.2018 10:00:00 26,0 17,0 5 3 - - 10 -
18.09.2018 09:00:00 24,0 17,0 8 4 SW - 10 -
18.09.2018 08:00:00 21,2 16,6 8 4 SW 1019,9 10 -
18.09.2018 07:00:00 19,0 15,0 9 5 WSW - 10 -
18.09.2018 06:00:00 19,0 15,0 9 5 WSW - 10 -
18.09.2018 05:00:00 19,3 15,1 8 4 WSW 1019,3 10 0,0
18.09.2018 04:00:00 20,0 15,0 9 5 SW - 10 -
18.09.2018 03:00:00 20,0 15,0 8 4 WSW - 10 -
18.09.2018 02:00:00 20,2 15,1 11 6 SW 1019,2 10 -
18.09.2018 01:00:00 21,0 17,0 4 2 W - 10 -
18.09.2018 00:00:00 22,0 18,0 5 3 WSW - 10 -
17.09.2018 23:00:00 22,6 18,1 5 3 WNW 1019,7 10 0,0
17.09.2018 22:00:00 22,0 17,0 9 5 W - 10 -
17.09.2018 21:00:00 23,0 17,0 4 2 - - 10 -
17.09.2018 20:00:00 23,9 17,8 4 2 N 1019,3 10 -
17.09.2018 19:00:00 25,0 18,0 9 5 NNE - 10 -
17.09.2018 18:00:00 26,0 18,0 11 6 NNE - 10 -
17.09.2018 17:00:00 26,2 17,6 15 8 NNE 1019,4 10 0,0
17.09.2018 16:00:00 27,0 17,0 15 8 NNE - 10 -
17.09.2018 15:00:00 27,0 17,0 16 9 N - 10 -
17.09.2018 14:00:00 26,4 17,3 15 8 N 1020,8 10 -
17.09.2018 13:00:00 27,0 17,0 13 7 N - 10 -
17.09.2018 12:00:00 27,0 17,0 15 8 N - 10 -
17.09.2018 11:00:00 26,5 17,0 16 9 N 1021,5 10 0,0
17.09.2018 10:00:00 26,0 17,0 15 8 N - 10 -
17.09.2018 09:00:00 26,0 17,0 16 9 NNE - 10 -
17.09.2018 08:00:00 25,2 17,3 18 10 N 1020,6 10 -
17.09.2018 07:00:00 24,0 19,0 13 7 NNW - 10 -
17.09.2018 06:00:00 24,0 21,0 15 8 NW - 10 -
17.09.2018 05:00:00 23,3 20,9 11 6 NW 1020,1 10 0,0
17.09.2018 04:00:00 24,0 21,0 13 7 NNW - 10 -
17.09.2018 03:00:00 24,0 21,0 16 9 NW - 10 -
17.09.2018 02:00:00 23,8 21,0 13 7 NNW 1020,5 10 -
17.09.2018 01:00:00 24,0 21,0 13 7 NW - 10 -
17.09.2018 00:00:00 24,0 21,0 13 7 NNW - 10 -
16.09.2018 23:00:00 23,7 21,7 13 7 NW 1020,8 10 0,0

tt = temperature
td = dewpoint
ff = wind speed
dd = wind direction
ppp = reduced air pressure
vv = visibility
rr = precipitation

Next stations